GW4707 Weather Reports


time (UTC)temp
C
wind
direction
speed
KPH
gust
KPH
rain 1hr
cm
rain 24hr
cm
rain mn
cm
humidity
%
barometer
mb
20260507140504 24 182 9.7 22.5 0.00 0.00 0.00 35 1019.3
20260507140009 24 211 6.4 22.5 0.00 0.00 0.00 36 1019.3
20260507135503 24 194 9.7 22.5 0.00 0.00 0.00 36 1019.3
20260507135004 24 360 9.7 25.7 0.00 0.00 0.00 35 1019.3
20260507134510 24 360 11.3 25.7 0.00 0.00 0.00 35 1019.4
20260507134005 24 360 9.7 22.5 0.00 0.00 0.00 35 1019.5
20260507133506 24 360 11.3 24.1 0.00 0.00 0.00 36 1019.5
20260507133017 25 360 16.1 24.1 0.00 0.00 0.00 35 1019.5
20260507132504 25 360 9.7 20.9 0.00 0.00 0.00 37 1019.5
20260507132006 25 360 9.7 20.9 0.00 0.00 0.00 37 1019.5
20260507131520 25 186 4.8 17.7 0.00 0.00 0.00 36 1019.5
20260507131009 25 360 8.0 17.7 0.00 0.00 0.00 36 1019.5
20260507130504 25 202 6.4 17.7 0.00 0.00 0.00 35 1019.5
20260507130021 26 180 6.4 17.7 0.00 0.00 0.00 34 1019.4
20260507125504 26 178 4.8 22.5 0.00 0.00 0.00 33 1019.4
20260507125004 26 215 12.9 22.5 0.00 0.00 0.00 32 1019.4
20260507124513 26 188 9.7 22.5 0.00 0.00 0.00 32 1019.4
20260507124004 27 220 11.3 22.5 0.00 0.00 0.00 31 1019.4
20260507123505 27 202 3.2 19.3 0.00 0.00 0.00 31 1019.5
20260507123017 26 154 6.4 16.1 0.00 0.00 0.00 31 1019.4
20260507122505 26 161 6.4 14.5 0.00 0.00 0.00 30 1019.4
20260507122009 26 200 4.8 16.1 0.00 0.00 0.00 32 1019.4
20260507121522 25 216 1.6 16.1 0.00 0.00 0.00 33 1019.4
20260507121008 24 161 4.8 11.3 0.00 0.00 0.00 37 1019.5
20260507120510 23 227 1.6 11.3 0.00 0.00 0.00 42 1019.5
20260507120022 23 70 6.4 12.9 0.00 0.00 0.00 41 1019.6
20260507115510 24 80 6.4 14.5 0.00 0.00 0.00 39 1019.6
20260507115004 25 84 6.4 14.5 0.00 0.00 0.00 39 1019.6
20260507114510 25 123 3.2 11.3 0.00 0.00 0.00 38 1019.6
20260507114004 25 86 4.8 12.9 0.00 0.00 0.00 37 1019.6
20260507113503 26 79 8.0 16.1 0.00 0.00 0.00 35 1019.6
20260507113017 26 67 3.2 16.1 0.00 0.00 0.00 32 1019.7
20260507112504 27 87 3.2 11.3 0.00 0.00 0.00 31 1019.7
20260507112007 27 205 1.6 9.7 0.00 0.00 0.00 30 1019.7
20260507111518 27 55 1.6 9.7 0.00 0.00 0.00 31 1019.6
20260507111006 27 113 3.2 8.0 0.00 0.00 0.00 32 1019.6
20260507110507 26 233 1.6 11.3 0.00 0.00 0.00 33 1019.6
20260507110030 26 134 1.6 12.9 0.00 0.00 0.00 34 1019.7
20260507105507 25 188 6.4 16.1 0.00 0.00 0.00 34 1019.8
20260507105007 24 169 4.8 16.1 0.00 0.00 0.00 35 1019.9
20260507104525 23 160 6.4 16.1 0.00 0.00 0.00 38 1020.0
20260507104014 22 76 0.0 11.3 0.00 0.00 0.00 47 1020.0
20260507103506 22 89 3.2 14.5 0.00 0.00 0.00 48 1020.0
20260507103012 22 66 1.6 14.5 0.00 0.00 0.00 48 1020.0
20260507102503 22 57 6.4 12.9 0.00 0.00 0.00 48 1020.0
20260507102004 22 122 3.2 14.5 0.00 0.00 0.00 50 1019.9
20260507101517 22 66 1.6 14.5 0.00 0.00 0.00 52 1020.0
20260507101004 22 113 1.6 12.9 0.00 0.00 0.00 53 1020.0
20260507100508 21 123 3.2 16.1 0.00 0.00 0.00 52 1020.0
20260507100025 21 113 4.8 16.1 0.00 0.00 0.00 52 1020.0
20260507095507 21 360 1.6 14.5 0.00 0.00 0.00 50 1020.0
20260507095007 22 80 3.2 14.5 0.00 0.00 0.00 49 1020.0
20260507094526 22 360 4.8 14.5 0.00 0.00 0.00 47 1019.9
20260507094007 22 82 4.8 12.9 0.00 0.00 0.00 45 1020.0
20260507093511 22 109 4.8 12.9 0.00 0.00 0.00 45 1020.0
20260507093036 22 159 1.6 9.7 0.00 0.00 0.00 46 1020.1
20260507092509 22 74 1.6 9.7 0.00 0.00 0.00 47 1020.1
20260507092003 22 123 1.6 8.0 0.00 0.00 0.00 48 1020.1
20260507091518 22 360 3.2 12.9 0.00 0.00 0.00 49 1020.0
20260507091006 22 360 4.8 12.9 0.00 0.00 0.00 49 1020.0
20260507090507 21 360 3.2 14.5 0.00 0.00 0.00 48 1020.2
20260507090019 21 360 4.8 14.5 0.00 0.00 0.00 49 1020.2
20260507085505 21 360 3.2 12.9 0.00 0.00 0.00 48 1020.1
20260507085006 21 360 3.2 11.3 0.00 0.00 0.00 49 1020.2
20260507084525 22 51 3.2 9.7 0.00 0.00 0.00 48 1020.3
20260507084009 22 68 3.2 9.7 0.00 0.00 0.00 48 1020.3
20260507083511 21 138 1.6 14.5 0.00 0.00 0.00 48 1020.2
20260507083026 21 91 3.2 14.5 0.00 0.00 0.00 48 1020.1
20260507082509 21 360 3.2 12.9 0.00 0.00 0.00 47 1020.1
20260507082015 21 82 3.2 11.3 0.00 0.00 0.00 48 1020.2
20260507081526 21 123 3.2 11.3 0.00 0.00 0.00 49 1020.2
20260507081008 21 360 3.2 14.5 0.00 0.00 0.00 51 1020.2
20260507080504 21 126 4.8 17.7 0.00 0.00 0.00 52 1020.2
20260507080016 20 360 3.2 17.7 0.00 0.00 0.00 52 1020.2
20260507075504 20 360 3.2 12.9 0.00 0.00 0.00 53 1020.2
20260507075005 20 360 1.6 12.9 0.00 0.00 0.00 53 1020.3
20260507074520 20 360 1.6 9.7 0.00 0.00 0.00 56 1020.3
20260507074006 20 360 3.2 16.1 0.00 0.00 0.00 56 1020.3
20260507073509 20 76 4.8 16.1 0.00 0.00 0.00 55 1020.3
20260507073028 20 360 4.8 16.1 0.00 0.00 0.00 54 1020.3
20260507072508 20 360 6.4 16.1 0.00 0.00 0.00 52 1020.2
20260507072009 20 360 4.8 14.5 0.00 0.00 0.00 51 1020.1
20260507071528 21 360 4.8 9.7 0.00 0.00 0.00 52 1020.2
20260507071009 21 128 1.6 9.7 0.00 0.00 0.00 54 1020.2
20260507070511 21 360 1.6 9.7 0.00 0.00 0.00 55 1020.2
20260507070026 21 76 1.6 9.7 0.00 0.00 0.00 54 1020.2
20260507065509 20 360 1.6 9.7 0.00 0.00 0.00 54 1020.2
20260507065009 20 360 1.6 9.7 0.00 0.00 0.00 55 1020.2
20260507064518 20 360 3.2 12.9 0.00 0.00 0.00 54 1020.2
20260507064005 20 68 4.8 12.9 0.00 0.00 0.00 52 1020.3
20260507063508 20 80 3.2 12.9 0.00 0.00 0.00 54 1020.3
20260507063036 20 58 0.0 4.8 0.00 0.00 0.00 59 1020.4
20260507062510 20 58 1.6 4.8 0.00 0.00 0.00 60 1020.3
20260507062007 20 40 0.0 4.8 0.00 0.00 0.00 61 1020.5
20260507061527 19 33 0.0 3.2 0.00 0.00 0.00 62 1020.4
20260507061009 19 60 0.0 4.8 0.00 0.00 0.00 64 1020.3
20260507060508 18 360 0.0 4.8 0.00 0.00 0.00 64 1020.3
20260507060040 18 67 1.6 4.8 0.00 0.00 0.00 65 1020.3
20260507055509 18 66 1.6 4.8 0.00 0.00 0.00 68 1020.3
20260507055017 18 59 0.0 4.8 0.00 0.00 0.00 70 1020.3
20260507054527 18 360 1.6 4.8 0.00 0.00 0.00 69 1020.3
20260507054010 18 39 1.6 4.8 0.00 0.00 0.00 69 1020.2
20260507053505 18 37 0.0 3.2 0.00 0.00 0.00 70 1020.2
20260507053021 18 360 0.0 3.2 0.00 0.00 0.00 70 1020.2
20260507052505 17 38 1.6 3.2 0.00 0.00 0.00 72 1020.1
20260507052008 17 360 0.0 3.2 0.00 0.00 0.00 73 1020.0
20260507051526 17 360 0.0 3.2 0.00 0.00 0.00 74 1019.9
20260507051003 16 360 0.0 4.8 0.00 0.00 0.00 75 1019.9
20260507050504 16 360 1.6 4.8 0.00 0.00 0.00 76 1019.8
20260507050010 16 360 0.0 3.2 0.00 0.00 0.00 77 1019.8
20260507045504 15 360 0.0 3.2 0.00 0.00 0.00 78 1019.7
20260507045004 15 344 0.0 3.2 0.00 0.00 0.00 78 1019.7
20260507044515 15 344 0.0 3.2 0.00 0.00 0.00 78 1019.8
20260507044004 15 360 0.0 4.8 0.00 0.00 0.00 78 1019.7
20260507043501 15 360 0.0 4.8 0.00 0.00 0.00 78 1019.7
20260507043005 14 360 0.0 3.2 0.00 0.00 0.00 78 1019.6
20260507042503 14 360 0.0 3.2 0.00 0.00 0.00 78 1019.6
20260507042002 14 360 0.0 3.2 0.00 0.00 0.00 78 1019.5
20260507041505 13 360 0.0 3.2 0.00 0.00 0.00 78 1019.5
20260507041004 13 360 0.0 3.2 0.00 0.00 0.00 78 1019.5
20260507040504 13 360 0.0 3.2 0.00 0.00 0.00 77 1019.4
20260507040006 13 360 0.0 4.8 0.00 0.00 0.00 77 1019.2
20260507035505 13 360 0.0 6.4 0.00 0.00 0.00 77 1019.1
20260507035005 13 360 1.6 8.0 0.00 0.00 0.00 77 1019.0
20260507034526 13 360 4.8 8.0 0.00 0.00 0.00 76 1019.0
20260507034009 13 360 3.2 6.4 0.00 0.00 0.00 76 1018.9
20260507033509 13 360 3.2 6.4 0.00 0.00 0.00 75 1018.8
20260507033016 13 360 3.2 6.4 0.00 0.00 0.00 75 1018.7
20260507032507 13 360 1.6 6.4 0.00 0.00 0.00 75 1018.6
20260507032002 13 360 0.0 8.0 0.00 0.00 0.00 74 1018.6
20260507031504 13 360 4.8 8.0 0.00 0.00 0.00 74 1018.5
20260507031003 13 360 3.2 8.0 0.00 0.00 0.00 73 1018.5
20260507030504 13 360 3.2 8.0 0.00 0.00 0.00 73 1018.5
20260507030008 13 360 3.2 8.0 0.00 0.00 0.00 72 1018.4
20260507025503 13 360 1.6 6.4 0.00 0.00 0.00 72 1018.3
20260507025004 14 360 0.0 6.4 0.00 0.00 0.00 71 1018.4
20260507024510 14 360 1.6 6.4 0.00 0.00 0.00 71 1018.3
20260507024007 14 360 1.6 6.4 0.00 0.00 0.00 71 1018.4
20260507023505 14 360 3.2 6.4 0.00 0.00 0.00 71 1018.4
20260507023016 14 360 3.2 6.4 0.00 0.00 0.00 70 1018.4
20260507022507 14 360 0.0 3.2 0.00 0.00 0.00 70 1018.3
20260507022011 14 360 0.0 3.2 0.00 0.00 0.00 70 1018.3
20260507021516 14 360 1.6 4.8 0.00 0.00 0.00 70 1018.3
20260507021007 13 360 0.0 4.8 0.00 0.00 0.00 70 1018.3
20260507020503 13 360 0.0 4.8 0.00 0.00 0.00 70 1018.2
20260507020010 13 360 0.0 1.6 0.00 0.00 0.00 69 1018.2
20260507015503 13 360 0.0 1.6 0.00 0.00 0.00 69 1018.2
20260507015004 13 360 0.0 1.6 0.00 0.00 0.00 69 1018.0
20260507014508 13 360 0.0 0.0 0.00 0.00 0.00 69 1018.0
20260507014005 13 360 0.0 0.0 0.00 0.00 0.00 69 1018.0
20260507013505 13 360 0.0 6.4 0.00 0.00 0.00 69 1018.0
20260507013018 13 360 0.0 8.0 0.00 0.00 0.00 69 1018.0
20260507012503 13 360 1.6 9.7 0.00 0.00 0.00 68 1018.0
20260507012009 13 360 3.2 9.7 0.00 0.00 0.00 68 1018.1
20260507011515 13 360 4.8 9.7 0.00 0.00 0.00 68 1018.0
20260507011007 13 360 4.8 8.0 0.00 0.00 0.00 66 1018.0
20260507010508 13 360 1.6 6.4 0.00 0.00 0.00 66 1018.0
20260507010020 13 360 3.2 6.4 0.00 0.00 0.00 65 1018.0
20260507005508 13 360 3.2 6.4 0.00 0.00 0.00 65 1018.1
20260507005004 13 360 3.2 6.4 0.00 0.00 0.00 64 1018.2
20260507004506 13 360 3.2 6.4 0.00 0.00 0.00 63 1018.1
20260507004004 13 360 1.6 6.4 0.00 0.00 0.00 63 1018.1
20260507003504 14 360 3.2 6.4 0.00 0.00 0.00 62 1018.2
20260507003010 14 360 1.6 6.4 0.00 0.00 0.00 62 1018.2
20260507002505 14 360 1.6 6.4 0.00 0.00 0.00 61 1018.2
20260507002007 14 360 1.6 3.2 0.00 0.00 0.00 61 1018.2
20260507001515 14 360 0.0 4.8 0.00 0.00 0.00 61 1018.2
20260507001012 14 360 0.0 6.4 0.00 0.00 0.00 61 1018.2
20260507000507 14 360 3.2 8.0 0.00 0.00 0.00 61 1018.2
20260507000022 14 360 3.2 8.0 0.00 0.00 0.00 61 1018.1
20260506235511 14 360 3.2 8.0 0.00 0.00 0.00 61 1018.2
20260506235008 14 360 3.2 6.4 0.00 0.00 0.00 61 1018.2
20260506234529 14 360 3.2 8.0 0.00 0.00 0.00 61 1018.2
20260506234011 14 360 1.6 8.0 0.00 0.00 0.00 61 1018.2
20260506233503 14 360 3.2 8.0 0.00 0.00 0.00 61 1018.2
20260506233006 14 360 1.6 6.4 0.00 0.00 0.00 61 1018.2
20260506232504 14 360 3.2 8.0 0.00 0.00 0.00 61 1018.3
20260506232004 14 360 3.2 8.0 0.00 0.00 0.00 61 1018.3
20260506231509 14 360 3.2 6.4 0.00 0.00 0.00 62 1018.3
20260506231006 14 360 3.2 8.0 0.00 0.00 0.00 62 1018.4
20260506230505 14 360 3.2 8.0 0.00 0.00 0.00 63 1018.4
20260506230016 14 360 3.2 8.0 0.00 0.00 0.00 63 1018.4
20260506225504 14 360 3.2 8.0 0.00 0.00 0.00 64 1018.4
20260506225008 14 360 4.8 8.0 0.00 0.00 0.00 64 1018.5
20260506224520 14 360 4.8 8.0 0.00 0.00 0.00 65 1018.5
20260506224008 15 360 1.6 8.0 0.00 0.00 0.00 65 1018.5
20260506223508 15 360 3.2 8.0 0.00 0.00 0.00 64 1018.5
20260506223024 15 360 3.2 8.0 0.00 0.00 0.00 64 1018.6
20260506222507 15 360 4.8 9.7 0.00 0.00 0.00 64 1018.6
20260506222004 15 360 4.8 9.7 0.00 0.00 0.00 63 1018.7
20260506221510 15 360 1.6 8.0 0.00 0.00 0.00 62 1018.6
20260506221006 15 360 3.2 8.0 0.00 0.00 0.00 62 1018.7
20260506220506 15 360 3.2 6.4 0.00 0.00 0.00 61 1018.7
20260506220023 15 360 3.2 6.4 0.00 0.00 0.00 60 1018.8
20260506215503 15 360 3.2 8.0 0.00 0.00 0.00 59 1018.8
20260506215007 15 360 3.2 8.0 0.00 0.00 0.00 58 1018.8
20260506214522 15 360 3.2 4.8 0.00 0.00 0.00 57 1018.8
20260506214006 15 360 0.0 4.8 0.00 0.00 0.00 56 1018.8
20260506213508 15 360 3.2 4.8 0.00 0.00 0.00 55 1018.8
20260506213026 15 360 1.6 4.8 0.00 0.00 0.00 54 1018.8
20260506212509 15 360 1.6 4.8 0.00 0.00 0.00 54 1018.7
20260506212008 15 360 1.6 8.0 0.00 0.00 0.00 54 1018.8
20260506211528 15 360 3.2 8.0 0.00 0.00 0.00 53 1018.8
20260506211009 15 360 1.6 8.0 0.00 0.00 0.00 53 1018.8
20260506210508 15 360 4.8 8.0 0.00 0.00 0.00 52 1018.7
20260506210022 15 360 3.2 8.0 0.00 0.00 0.00 53 1018.8
20260506205506 15 360 4.8 8.0 0.00 0.00 0.00 54 1018.8
20260506205005 15 360 3.2 6.4 0.00 0.00 0.00 55 1018.8
20260506204518 15 360 1.6 6.4 0.00 0.00 0.00 55 1018.7
20260506204007 15 360 1.6 4.8 0.00 0.00 0.00 55 1018.7
20260506203511 15 360 0.0 9.7 0.00 0.00 0.00 54 1018.7
20260506203022 15 360 3.2 9.7 0.00 0.00 0.00 54 1018.7
20260506202511 15 360 4.8 9.7 0.00 0.00 0.00 53 1018.7
20260506202009 15 360 3.2 9.7 0.00 0.00 0.00 53 1018.6
20260506201530 15 360 3.2 9.7 0.00 0.00 0.00 51 1018.6
20260506201008 16 360 4.8 9.7 0.00 0.00 0.00 51 1018.6
20260506200504 16 360 4.8 8.0 0.00 0.00 0.00 51 1018.6
20260506200025 16 360 3.2 9.7 0.00 0.00 0.00 51 1018.6
20260506195505 16 360 4.8 9.7 0.00 0.00 0.00 51 1018.6
20260506195005 16 360 4.8 9.7 0.00 0.00 0.00 50 1018.5
20260506194515 16 360 3.2 8.0 0.00 0.00 0.00 50 1018.5
20260506194006 16 360 3.2 6.4 0.00 0.00 0.00 51 1018.5
20260506193507 16 360 3.2 8.0 0.00 0.00 0.00 52 1018.4
20260506193004 16 360 1.6 8.0 0.00 0.00 0.00 54 1018.3
20260506192503 16 360 1.6 6.4 0.00 0.00 0.00 55 1018.3
20260506192003 16 360 1.6 6.4 0.00 0.00 0.00 55 1018.3
20260506191505 16 360 3.2 6.4 0.00 0.00 0.00 56 1018.2
20260506191005 16 360 3.2 9.7 0.00 0.00 0.00 56 1018.1
20260506190505 16 360 3.2 9.7 0.00 0.00 0.00 56 1018.1
20260506190007 17 360 4.8 8.0 0.00 0.00 0.00 56 1018.1
20260506185508 17 360 3.2 8.0 0.00 0.00 0.00 56 1018.0
20260506185006 17 360 1.6 8.0 0.00 0.00 0.00 56 1017.9
20260506184512 17 360 3.2 9.7 0.00 0.00 0.00 56 1017.9
20260506184010 17 360 4.8 9.7 0.00 0.00 0.00 55 1017.8
20260506183507 17 360 4.8 9.7 0.00 0.00 0.00 56 1017.7
20260506183019 17 360 3.2 8.0 0.00 0.00 0.00 55 1017.6
20260506182505 17 360 3.2 8.0 0.00 0.00 0.00 55 1017.5
20260506182009 17 360 4.8 8.0 0.00 0.00 0.00 55 1017.5
20260506181505 17 360 3.2 8.0 0.00 0.00 0.00 55 1017.4
20260506181004 17 360 0.0 6.4 0.00 0.00 0.00 54 1017.4
20260506180504 18 360 3.2 8.0 0.00 0.00 0.00 53 1017.4
20260506180016 18 360 3.2 8.0 0.00 0.00 0.00 53 1017.3
20260506175503 18 360 3.2 8.0 0.00 0.00 0.00 53 1017.3
20260506175004 18 360 0.0 8.0 0.00 0.00 0.00 52 1017.2
20260506174511 18 360 1.6 8.0 0.00 0.00 0.00 52 1017.2
20260506174006 18 360 3.2 6.4 0.00 0.00 0.00 51 1017.1
20260506173505 19 360 1.6 6.4 0.00 0.00 0.00 51 1017.1
20260506173015 19 360 0.0 6.4 0.00 0.00 0.00 50 1017.1
20260506172507 20 360 1.6 6.4 0.00 0.00 0.00 49 1017.2
20260506172008 20 360 3.2 6.4 0.00 0.00 0.00 49 1017.1
20260506171522 20 360 1.6 4.8 0.00 0.00 0.00 47 1017.1
20260506171006 20 360 0.0 4.8 0.00 0.00 0.00 47 1017.1
20260506170511 21 360 1.6 4.8 0.00 0.00 0.00 46 1016.9
20260506170004 21 360 1.6 6.4 0.00 0.00 0.00 45 1016.9
20260506165503 21 360 3.2 6.4 0.00 0.00 0.00 44 1016.8
20260506165005 22 360 1.6 4.8 0.00 0.00 0.00 42 1016.7
20260506164509 22 360 0.0 3.2 0.00 0.00 0.00 40 1016.7
20260506164008 22 360 0.0 3.2 0.00 0.00 0.00 40 1016.7
20260506163503 22 319 0.0 4.8 0.00 0.00 0.00 39 1016.7
20260506163010 22 360 0.0 4.8 0.00 0.00 0.00 40 1016.7
20260506162503 22 360 1.6 6.4 0.00 0.00 0.00 40 1016.7
20260506162006 22 335 1.6 6.4 0.00 0.00 0.00 38 1016.7
20260506161527 23 352 3.2 4.8 0.00 0.00 0.00 39 1016.7
20260506161007 23 342 1.6 4.8 0.00 0.00 0.00 38 1016.7
20260506160509 23 352 1.6 4.8 0.00 0.00 0.00 37 1016.7
20260506160021 23 9 1.6 4.8 0.00 0.00 0.00 37 1016.7
20260506155511 23 5 1.6 4.8 0.00 0.00 0.00 37 1016.7
20260506155009 23 51 0.0 3.2 0.00 0.00 0.00 38 1016.8
20260506154508 23 15 1.6 6.4 0.00 0.00 0.00 38 1016.8
20260506154003 22 58 1.6 6.4 0.00 0.00 0.00 38 1016.8
20260506153503 22 76 0.0 6.4 0.00 0.00 0.00 39 1016.8
20260506153011 22 81 0.0 6.4 0.00 0.00 0.00 38 1016.8
20260506152503 22 75 1.6 6.4 0.00 0.00 0.00 38 1016.8
20260506152007 23 72 3.2 6.4 0.00 0.00 0.00 38 1016.9
20260506151515 23 71 1.6 6.4 0.00 0.00 0.00 38 1016.9
20260506151008 23 83 3.2 6.4 0.00 0.00 0.00 36 1016.9
20260506150506 23 84 3.2 6.4 0.00 0.00 0.00 37 1016.9
20260506150018 23 74 3.2 8.0 0.00 0.00 0.00 36 1016.9
20260506145510 23 66 1.6 8.0 0.00 0.00 0.00 36 1016.8
20260506145010 23 347 1.6 8.0 0.00 0.00 0.00 36 1016.9
20260506144522 23 342 1.6 8.0 0.00 0.00 0.00 37 1016.9
20260506144007 23 352 3.2 8.0 0.00 0.00 0.00 36 1016.9
20260506143507 23 350 3.2 6.4 0.00 0.00 0.00 36 1016.9
20260506143007 23 17 0.0 6.4 0.00 0.00 0.00 37 1016.8
20260506142503 23 88 3.2 6.4 0.00 0.00 0.00 37 1016.8
20260506142007 23 83 3.2 6.4 0.00 0.00 0.00 36 1016.8
20260506141513 23 75 3.2 11.3 0.00 0.00 0.00 37 1016.9
20260506141007 23 82 1.6 11.3 0.00 0.00 0.00 37 1016.9